Salem, OR

2:52 AM PST on December 14, 2017 (GMT -0800)
McNary

Weather History for KSLE - April, 2014

Change the Weather History Date:

Wednesday, April 2, 2014

  Actual Average Record
Temperature  
Mean Temperature 51 °F 49 °F  
Max Temperature 62 °F 59 °F 78 °F (1944)
Min Temperature 39 °F 39 °F 26 °F (1935)
Degree Days  
Heating Degree Days 14 16  
Month to date heating degree days 30 32  
Since 1 July heating degree days 3802 3835  
Cooling Degree Days 0 0  
Month to date cooling degree days 0 0  
Year to date cooling degree days 0 0  
Moisture  
Dew Point 41 °F    
Average Humidity 68    
Maximum Humidity 96    
Minimum Humidity 39    
Precipitation  
Precipitation 0.00 in 0.11 in 0.91 in (2010)
Month to date precipitation 0.02 0.22  
Year to date precipitation 16.61 14.73  
Sea Level Pressure  
Sea Level Pressure 30.02 in    
Wind  
Wind Speed 6 mph (SSW)    
Max Wind Speed 13 mph    
Max Gust Speed 16 mph    
Visibility 8 miles    
Events Fog    
T = Trace of Precipitation, MM = Missing Value Source: NWS Daily Summary

Daily Weather History Graph

Daily Weather History Graph

Search for Another Location

Airport or City:

Trip Planner

Search our weather history database for the weather conditions in past years. The results will help you decide how hot, cold, wet, or windy it might be!

Date:

Astronomy

Apr. 02, 2014 Rise Set
Actual Time 6:50 AM PDT 7:41 PM PDT
Civil Twilight 6:20 AM PDT 8:10 PM PDT
Nautical Twilight 5:45 AM PDT 8:46 PM PDT
Astronomical Twilight 5:08 AM PDT 9:23 PM PDT
Moon 8:31 AM PDT (4/2) 11:17 PM PDT (4/2)
Length of Visible Light 13h 49m
Length of Day
12h 50m
Waxing Crescent, 11% of the Moon is Illuminated
Apr 2
Waxing Crescent
Apr 7
First Quarter
Apr 15
Full
Apr 22
Last Quarter
Apr 28
New

Hourly Weather History & Observations

Time (PDT) Temp. Windchill Dew Point Humidity Pressure Visibility Wind Dir Wind Speed Gust Speed Precip Events Conditions
12:45 AM 46.9 °F - 43.0 °F 86% 29.96 in 10.0 mi Calm Calm - N/A   Overcast
12:56 AM 46.0 °F 44.8 °F 43.0 °F 89% 29.96 in 10.0 mi SE 3.5 mph - N/A   Overcast
1:56 AM 45.0 °F 43.5 °F 42.1 °F 90% 29.97 in 10.0 mi SW 3.5 mph - N/A   Overcast
2:56 AM 45.0 °F 43.5 °F 42.1 °F 90% 29.97 in 10.0 mi South 3.5 mph - N/A   Mostly Cloudy
3:56 AM 39.9 °F 37.8 °F 37.9 °F 93% 29.97 in 10.0 mi WSW 3.5 mph - N/A   Clear
5:47 AM 41.0 °F 39.0 °F 39.9 °F 96% 30.00 in 0.5 mi SW 3.5 mph - N/A Fog Fog
5:56 AM 41.0 °F 39.0 °F 39.9 °F 96% 30.00 in 0.5 mi SW 3.5 mph - N/A Fog Fog
6:10 AM 41.0 °F 38.0 °F 39.9 °F 96% 30.00 in 0.2 mi SW 4.6 mph - N/A Fog Fog
6:56 AM 42.1 °F - 41.0 °F 96% 30.01 in 0.5 mi Calm Calm - N/A Fog Fog
7:22 AM 43.0 °F 41.3 °F 42.1 °F 97% 30.01 in 1.0 mi SSW 3.5 mph - N/A   Overcast
7:36 AM 43.0 °F - 42.1 °F 97% 30.02 in 2.5 mi Calm Calm - N/A   Overcast
7:56 AM 44.1 °F - 42.1 °F 93% 30.03 in 3.0 mi Calm Calm - N/A   Overcast
8:31 AM 44.1 °F 40.8 °F 42.1 °F 93% 30.03 in 10.0 mi South 5.8 mph - N/A   Overcast
8:56 AM 44.1 °F 40.8 °F 43.0 °F 96% 30.04 in 2.5 mi SSW 5.8 mph - N/A   Overcast
9:11 AM 44.1 °F 40.1 °F 42.1 °F 93% 30.04 in 4.0 mi South 6.9 mph - N/A   Overcast
9:45 AM 46.0 °F 42.5 °F 42.1 °F 86% 30.05 in 10.0 mi SW 6.9 mph - N/A   Mostly Cloudy
9:56 AM 46.9 °F - 42.1 °F 83% 30.06 in 10.0 mi SW 8.1 mph - N/A   Overcast
10:56 AM 51.1 °F - 42.1 °F 71% 30.06 in 10.0 mi South 10.4 mph - N/A   Mostly Cloudy
11:56 AM 54.0 °F - 41.0 °F 62% 30.06 in 10.0 mi SW 9.2 mph - N/A   Mostly Cloudy
12:56 PM 55.9 °F - 41.0 °F 57% 30.05 in 10.0 mi WSW 8.1 mph - N/A   Mostly Cloudy
1:03 PM 57.0 °F - 42.1 °F 57% 30.05 in 10.0 mi SW 8.1 mph - N/A   Partly Cloudy
1:56 PM 57.9 °F - 41.0 °F 53% 30.04 in 10.0 mi SSW 8.1 mph - N/A   Partly Cloudy
2:56 PM 60.1 °F - 39.0 °F 46% 30.04 in 10.0 mi SW 10.4 mph - N/A   Partly Cloudy
3:56 PM 61.0 °F - 35.1 °F 38% 30.03 in 10.0 mi South 9.2 mph - N/A   Mostly Cloudy
4:56 PM 61.0 °F - 37.0 °F 41% 30.01 in 10.0 mi Variable 6.9 mph - N/A   Mostly Cloudy
5:56 PM 60.1 °F - 37.0 °F 42% 30.01 in 10.0 mi SW 6.9 mph - N/A   Mostly Cloudy
6:56 PM 57.9 °F - 39.0 °F 49% 30.00 in 10.0 mi SSE 4.6 mph - N/A   Partly Cloudy
7:56 PM 55.9 °F - 41.0 °F 57% 30.00 in 10.0 mi WSW 6.9 mph - N/A   Mostly Cloudy
8:56 PM 53.1 °F - 42.1 °F 66% 30.01 in 10.0 mi West 3.5 mph - N/A   Clear
9:56 PM 51.1 °F - 42.1 °F 71% 30.01 in 10.0 mi WSW 4.6 mph - N/A   Clear
10:56 PM 48.0 °F - 43.0 °F 83% 30.02 in 10.0 mi South 3.5 mph - N/A   Clear
11:56 PM 46.9 °F - 42.1 °F 83% 30.02 in 10.0 mi SSW 3.5 mph - N/A   Mostly Cloudy